Terminal Aerodrome Forecast
Issued by NWS Detroit/Pontiac, MI

Home | Current Version | Previous Version | Text Only | Print | Product List | Glossary On
Versions: 1 2 3 4 5 6 7 8 9 10 11 12 13 14 15 16 17 18 19 20 21 22 23 24 25 26 27 28
000
FTUS43 KDTX 192049 AAA
TAFDTW
TAF AMD
KDTW 192049Z 1921/2024 35004KT P6SM BKN025
     FM192300 33005KT P6SM SCT025
     FM200400 VRB03KT P6SM BKN020
     FM201400 23004KT P6SM OVC020=

USA.gov is the U.S. government's official web portal to all federal, state and local government web resources and services.